CW1767 Weather Reports


Display with metric or nautical units.
time (UTC)temp
F
wind
direction
speed
MPH
gust
MPH
rain 1hr
in
rain 24hr
in
rain mn
in
humidity
%
barometer
mb
20260507023038 64 150 0.0 0.0 0.00 0.05 0.05 86 1009.1
20260507021537 65 150 0.0 0.0 0.00 0.05 0.05 85 1009.0
20260507020036 65 150 0.0 0.0 0.00 0.05 0.05 84 1009.4
20260507014546 66 150 0.0 0.0 0.00 0.05 0.05 83 1009.2
20260507013036 66 150 0.0 0.0 0.00 0.05 0.05 82 1009.1
20260507011535 67 150 0.0 0.0 0.00 0.05 0.05 81 1009.2
20260507010040 68 150 0.0 0.0 0.00 0.05 0.05 80 1009.0
20260507004535 68 146 0.0 1.0 0.00 0.05 0.05 79 1009.3
20260507003035 68 182 0.0 0.0 0.00 0.05 0.05 79 1008.8
20260507001537 68 172 0.0 0.0 0.00 0.05 0.05 78 1008.7
20260507000038 69 173 0.0 0.0 0.00 0.05 0.05 78 1008.7
20260506234533 69 151 0.0 0.0 0.00 0.05 0.05 77 1008.6
20260506233036 69 151 0.0 0.0 0.00 0.05 0.05 76 1008.5
20260506231532 70 160 0.0 0.0 0.00 0.05 0.05 76 1008.4
20260506230031 70 149 0.0 1.0 0.00 0.05 0.05 75 1008.4
20260506224531 70 155 0.0 0.0 0.00 0.05 0.05 75 1008.5
20260506223030 71 194 0.0 1.0 0.00 0.05 0.05 74 1008.5
20260506221528 71 186 0.0 2.0 0.00 0.05 0.05 74 1008.7
20260506220028 70 159 0.0 1.0 0.00 0.05 0.05 75 1008.7
20260506214527 70 177 0.0 1.0 0.00 0.05 0.05 76 1008.6
20260506213027 70 175 0.0 1.0 0.00 0.05 0.05 75 1008.9
20260506211526 70 164 0.0 1.0 0.00 0.05 0.05 75 1008.8
20260506210028 70 182 0.0 2.0 0.00 0.05 0.05 74 1008.7
20260506204526 70 148 0.0 2.0 0.00 0.05 0.05 75 1008.8
20260506203025 70 174 0.0 2.0 0.00 0.05 0.05 75 1008.7
20260506201523 70 155 0.0 3.0 0.00 0.05 0.05 75 1009.0
20260506200023 70 171 0.0 3.0 0.00 0.05 0.05 75 1009.1
20260506194522 70 167 0.0 7.0 0.00 0.05 0.05 76 1009.1
20260506193020 70 114 0.0 3.0 0.00 0.05 0.05 76 1008.9
20260506191520 70 121 0.0 3.0 0.00 0.05 0.05 76 1009.1
20260506190018 70 120 1.0 4.0 0.00 0.05 0.05 76 1009.6
20260506184516 69 182 0.0 2.0 0.00 0.05 0.05 79 1009.9
20260506183016 68 126 0.0 2.0 0.00 0.05 0.05 81 1009.9
20260506181514 67 154 0.0 2.0 0.01 0.05 0.05 83 1010.2
20260506180013 67 115 0.0 4.0 0.02 0.05 0.05 85 1010.1
20260506174513 66 143 0.0 3.0 0.03 0.05 0.05 87 1010.3
20260506173013 65 115 0.0 2.0 0.03 0.05 0.05 88 1010.2
20260506171511 65 111 0.0 3.0 0.03 0.04 0.04 87 1010.5
20260506170008 65 112 0.0 3.0 0.02 0.03 0.03 86 1010.7
20260506164506 65 115 0.0 3.0 0.02 0.02 0.02 85 1011.2
20260506163007 65 134 0.0 4.0 0.02 0.02 0.02 84 1011.5
20260506161504 66 125 0.0 2.0 0.01 0.01 0.01 83 1011.5
20260506160003 67 119 0.0 3.0 0.01 0.01 0.01 80 1011.8
20260506154501 69 119 0.0 3.0 0.00 0.00 0.00 75 1011.9
20260506153112 69 121 0.0 2.0 0.00 0.00 0.00 74 1011.8
20260506151601 69 102 0.0 3.0 0.00 0.00 0.00 73 1011.7
20260506144558 70 144 0.0 6.0 0.00 0.00 0.00 70 1011.8
20260506143107 70 184 1.0 8.0 0.00 0.00 0.00 70 1011.5
20260506141557 70 192 1.0 4.0 0.00 0.00 0.00 70 1011.7
20260506140058 70 205 1.0 4.0 0.00 0.00 0.00 70 1011.7
20260506134555 70 47 1.0 4.0 0.00 0.00 0.00 70 1011.7
20260506133055 69 155 0.0 5.0 0.00 0.00 0.00 70 1011.7
20260506131552 69 88 1.0 6.0 0.00 0.00 0.00 71 1011.8
20260506130050 68 122 0.0 5.0 0.00 0.00 0.00 72 1011.9
20260506124547 68 115 0.0 4.0 0.00 0.00 0.00 72 1011.9
20260506123046 67 74 0.0 5.0 0.00 0.00 0.00 72 1012.3
20260506121546 67 54 0.0 3.0 0.00 0.00 0.00 73 1012.0
20260506120055 66 84 0.0 3.0 0.00 0.00 0.00 74 1012.0
20260506114555 65 130 0.0 4.0 0.00 0.00 0.00 76 1011.9
20260506113044 65 65 0.0 3.0 0.00 0.00 0.00 76 1011.9
20260506111544 64 69 0.0 4.0 0.00 0.00 0.00 76 1011.8
20260506110049 64 89 0.0 4.0 0.00 0.00 0.00 76 1011.8
20260506104543 64 72 0.0 3.0 0.00 0.00 0.00 76 1011.9
20260506103042 64 115 0.0 2.0 0.00 0.00 0.00 76 1011.9
20260506101543 64 69 0.0 3.0 0.00 0.00 0.00 75 1011.9
20260506100045 64 102 0.0 4.0 0.00 0.00 0.00 75 1011.8
20260506094554 64 111 0.0 2.0 0.00 0.00 0.00 75 1011.7
20260506093038 64 119 0.0 2.0 0.00 0.00 0.00 74 1011.8
20260506091538 64 58 0.0 3.0 0.00 0.00 0.00 74 1011.8
20260506090139 64 111 0.0 2.0 0.00 0.00 0.00 73 1011.8
20260506084535 64 128 0.0 4.0 0.00 0.00 0.00 72 1011.7
20260506083034 64 137 0.0 3.0 0.00 0.00 0.00 72 1011.9
20260506081535 64 126 0.0 3.0 0.00 0.00 0.00 71 1011.9
20260506073033 65 125 0.0 4.0 0.00 0.00 0.00 72 1012.0
20260506071533 65 113 0.0 3.0 0.00 0.00 0.00 72 1012.1
20260506061532 66 19 0.0 4.0 0.00 0.00 0.00 72 1012.4
20260506044524 67 80 0.0 3.0 0.00 0.00 0.00 70 1012.8
20260506043014 68 34 0.0 6.0 0.00 0.00 0.00 70 1012.8
20260506041509 68 49 0.0 2.0 0.00 0.00 0.00 71 1012.8
20260506040010 68 38 1.0 3.0 0.00 0.00 0.00 71 1012.7
20260506034506 68 109 0.0 3.0 0.00 0.00 0.00 72 1012.6
20260506033006 68 47 0.0 3.0 0.00 0.00 0.00 72 1012.7
20260506031512 68 29 0.0 4.0 0.00 0.00 0.00 72 1012.7
20260506030004 68 63 0.0 3.0 0.00 0.00 0.00 71 1012.7
20260506024513 69 69 0.0 3.0 0.00 0.00 0.00 71 1012.7
20260506023102 69 92 0.0 4.0 0.00 0.00 0.00 71 1012.7